This is the latest recevied weather packets stored in our database for station/object IR1ZYZ-3. If no packets are shown the sender has not sent any weather packets the latest 10 day(s).
| Time | Temp. | Humidity | Pressure | Rain* | Wind** | Luminosity | Snow |
|---|---|---|---|---|---|---|---|
| 1777702010 | 11.67° C | 85% | 1027.8 hPa | - | - | - | - |
| 1777701406 | 11.67° C | 85% | 1027.8 hPa | - | - | - | - |
| 1777700800 | 11.11° C | 89% | 1027.8 hPa | - | - | - | - |
| 1777700195 | 11.11° C | 90% | 1027.8 hPa | - | - | - | - |
| 1777699591 | 10.56° C | 89% | 1027.9 hPa | - | - | - | - |
| 1777698986 | 10.56° C | 91% | 1027.7 hPa | - | - | - | - |
| 1777698986 | 10.56° C | 91% | 1027.7 hPa | - | - | - | - |
| 1777698381 | 10° C | 92% | 1027.9 hPa | - | - | - | - |
| 1777698381 | 10° C | 92% | - | - | - | - | - |
| 1777697776 | 10.56° C | 85% | 1027.7 hPa | - | - | - | - |
| 1777697171 | 10° C | 91% | 1027.7 hPa | - | - | - | - |
| 1777696566 | 10° C | 93% | 1027.8 hPa | - | - | - | - |
| 1777695961 | 10° C | 90% | 1027.8 hPa | - | - | - | - |
| 1777695356 | 9.44° C | 89% | 1027.8 hPa | - | - | - | - |
| 1777694752 | 10° C | 88% | 1027.7 hPa | - | - | - | - |
| 1777694148 | 10° C | 85% | 1027.7 hPa | - | - | - | - |
| 1777693543 | 10° C | 86% | 1027.7 hPa | - | - | - | - |
| 1777692938 | 10° C | 88% | 1027.7 hPa | - | - | - | - |
| 1777692333 | 10° C | 88% | 1027.7 hPa | - | - | - | - |
| 1777691728 | 10° C | 89% | 1027.7 hPa | - | - | - | - |
| 1777691124 | 10° C | 89% | 1027.6 hPa | - | - | - | - |
| 1777691124 | 10° C | 89% | 1027.6 hPa | - | - | - | - |
| 1777690519 | 10° C | 88% | 1027.7 hPa | - | - | - | - |
| 1777690519 | 10° C | - | - | - | - | - | - |
| 1777689913 | 10.56° C | 90% | 1027.7 hPa | - | - | - | - |
* Rain since midnight (hover to see other rain measurements)
** Current wind speed in m/s (hover to see current wind gust speed)